Volver al catálogo

STARLINK-35306

ActivoComunicacionesVLEO
NORAD 67361·PAYLOAD·🇺🇸 United States

Lanzado Jan 9, 2026 desde Cape Canaveral Space Force Station

Loading…

Próximos Pases (próximas 24 horas)

TLE

ActualizadoSource: CelesTrak SupGP

Época: Sep 14, 2026, 21:47 UTC

1 67361C 26003AD  26257.90812500  .00040096  00000+0  14523-2 0  2573
2 67361  42.9991 238.3849 0001337 262.7978  81.8946 15.27558286    17

Sigue STARLINK-35306 en tiempo real con AllMySat

Download on the App Store